| time (UTC) | temp F | wind direction | speed knots | gust knots | rain 1hr in | rain 24hr in | rain mn in | humidity % | barometer mb |
| 20260504193017 | 69 | 248 | 5.2 | 17.4 | 0.00 | 0.00 | 0.00 | 36 | 1008.1 |
| 20260504190016 | 68 | 248 | 5.2 | 17.4 | 0.00 | 0.00 | 0.00 | 37 | 1008.3 |
| 20260504183016 | 67 | 248 | 4.3 | 15.6 | 0.00 | 0.00 | 0.00 | 41 | 1008.4 |
| 20260504180016 | 65 | 225 | 3.5 | 12.2 | 0.00 | 0.00 | 0.00 | 42 | 1008.5 |
| 20260504173016 | 66 | 158 | 4.3 | 20.0 | 0.00 | 0.00 | 0.00 | 45 | 1008.7 |
| 20260504050017 | 47 | 0.0 | 0.0 | 0.00 | 0.00 | 0.00 | 59 | 1010.5 | |
| 20260504043017 | 47 | 0.0 | 0.0 | 0.00 | 0.00 | 0.00 | 59 | 1010.6 | |
| 20260504040017 | 47 | 0.0 | 1.7 | 0.00 | 0.00 | 0.00 | 59 | 1010.8 | |
| 20260504033017 | 48 | 248 | 0.9 | 6.1 | 0.00 | 0.00 | 0.00 | 58 | 1010.8 |
| 20260504030037 | 47 | 248 | 0.9 | 6.1 | 0.00 | 0.00 | 0.00 | 58 | 1010.9 |
| 20260504023017 | 46 | 0.0 | 0.0 | 0.00 | 0.00 | 0.00 | 59 | 1011.0 | |
| 20260504020017 | 46 | 0.0 | 0.0 | 0.00 | 0.00 | 0.00 | 57 | 1010.9 | |
| 20260504013017 | 47 | 0.0 | 0.0 | 0.00 | 0.00 | 0.00 | 57 | 1010.9 | |
| 20260504010017 | 47 | 0.0 | 0.0 | 0.00 | 0.00 | 0.00 | 55 | 1010.5 | |
| 20260504003017 | 48 | 0.0 | 0.0 | 0.00 | 0.00 | 0.00 | 54 | 1010.1 | |
| 20260504000017 | 49 | 0.0 | 0.0 | 0.00 | 0.00 | 0.00 | 51 | 1010.0 | |
| 20260503233017 | 51 | 270 | 0.9 | 7.0 | 0.00 | 0.00 | 0.00 | 49 | 1009.8 |
| 20260503230057 | 52 | 248 | 3.5 | 11.3 | 0.00 | 0.00 | 0.00 | 48 | 1009.8 |
| 20260503223016 | 51 | 248 | 6.1 | 13.9 | 0.00 | 0.00 | 0.00 | 50 | 1009.9 |
| 20260503220016 | 50 | 248 | 7.0 | 19.1 | 0.00 | 0.00 | 0.00 | 50 | 1009.9 |
| 20260503213017 | 50 | 270 | 7.0 | 16.5 | 0.00 | 0.00 | 0.00 | 46 | 1009.5 |
| 20260503210016 | 51 | 248 | 6.1 | 14.8 | 0.00 | 0.00 | 0.00 | 44 | 1009.3 |
| 20260503203016 | 51 | 270 | 5.2 | 13.9 | 0.00 | 0.00 | 0.00 | 42 | 1009.5 |